Weather History for KLOU - March, 2012

Change the Weather History Date:

Saturday, March 31, 2012

  Actual Average Record
Temperature  
Mean Temperature 60 °F 52 °F  
Max Temperature 67 °F 62 °F 86 °F (1981)
Min Temperature 52 °F 42 °F 19 °F (1969)
Degree Days  
Heating Degree Days 5 14  
Month to date heating degree days 211 563  
Since 1 July heating degree days 2996 3923  
Cooling Degree Days 0 0  
Month to date cooling degree days 70 4  
Year to date cooling degree days 70 4  
Growing Degree Days 10 (Base 50)    
Moisture  
Dew Point 53 °F    
Average Humidity 73    
Maximum Humidity 90    
Minimum Humidity 56    
Precipitation  
Precipitation 0.01 in 0.16 in 1.66 in (2006)
Month to date precipitation 4.90 4.16  
Year to date precipitation 10.48 10.72  
Sea Level Pressure  
Sea Level Pressure 29.87 in    
Wind  
Wind Speed 5 mph (North)    
Max Wind Speed 12 mph    
Max Gust Speed 16 mph    
Visibility 7 miles    
Events Rain    
T = Trace of Precipitation, MM = Missing Value Source: NWS Daily Summary

Daily Weather History Graph

Daily Weather History Graph

Search for Another Location

Airport or City:

Trip Planner

Search our weather history database for the weather conditions in past years. The results will help you decide how hot, cold, wet, or windy it might be!

Date:

Astronomy

Mar. 31, 2012 Rise Set
Actual Time 7:28 AM EDT 8:05 PM EDT
Civil Twilight 7:01 AM EDT 8:32 PM EDT
Nautical Twilight 6:30 AM EDT 9:03 PM EDT
Astronomical Twilight 5:58 AM EDT 9:35 PM EDT
Moon 1:38 PM EDT (3/31) 3:19 AM EDT (3/31)
Length of Visible Light 13h 30m
Length of Day
12h 36m
First Quarter, 59% of the Moon is Illuminated
Mar 31
First Quarter
Apr 6
Full
Apr 13
Last Quarter
Apr 21
New
Apr 29
First Quarter

Hourly Weather History & Observations

Time (EDT) Temp. Dew Point Humidity Pressure Visibility Wind Dir Wind Speed Gust Speed Precip Events Conditions
12:53 AM 63.0 °F 57.9 °F 84% 29.82 in 9.0 mi SE 4.6 mph - 0.06 in Rain Light Rain
1:53 AM 62.1 °F 57.0 °F 84% 29.82 in 10.0 mi WSW 6.9 mph - 0.01 in   Mostly Cloudy
2:53 AM 62.1 °F 55.9 °F 80% 29.81 in 10.0 mi Calm Calm - 0.00 in   Mostly Cloudy
3:53 AM 61.0 °F 57.0 °F 87% 29.79 in 10.0 mi Calm Calm - N/A   Scattered Clouds
4:53 AM 60.1 °F 57.0 °F 90% 29.81 in 7.0 mi Calm Calm - N/A   Scattered Clouds
5:53 AM 61.0 °F 57.9 °F 90% 29.82 in 8.0 mi North 3.5 mph - N/A   Overcast
6:53 AM 61.0 °F 57.0 °F 87% 29.83 in 10.0 mi North 6.9 mph - N/A   Overcast
7:04 AM 60.8 °F 57.2 °F 88% 29.84 in 9.0 mi North 5.8 mph - N/A   Overcast
7:21 AM 60.8 °F 57.2 °F 88% 29.85 in 6.0 mi North 8.1 mph - N/A   Overcast
7:53 AM 59.0 °F 55.4 °F 88% 29.86 in 3.0 mi North 9.2 mph - N/A   Overcast
8:19 AM 57.2 °F 53.6 °F 88% 29.87 in 3.0 mi North 6.9 mph - N/A   Overcast
8:53 AM 57.9 °F 54.0 °F 87% 29.87 in 3.0 mi North 6.9 mph - N/A   Overcast
9:53 AM 59.0 °F 54.0 °F 83% 29.88 in 3.0 mi North 6.9 mph - N/A   Haze
10:53 AM 60.1 °F 54.0 °F 80% 29.89 in 3.0 mi North 6.9 mph - N/A   Haze
11:11 AM 60.8 °F 53.6 °F 77% 29.90 in 3.0 mi NNE 4.6 mph - N/A   Haze
11:53 AM 60.1 °F 54.0 °F 80% 29.89 in 3.0 mi North 5.8 mph - N/A   Haze
12:53 PM 60.1 °F 53.1 °F 78% 29.91 in 3.0 mi North 6.9 mph - N/A   Haze
1:53 PM 61.0 °F 53.1 °F 75% 29.90 in 4.0 mi North 4.6 mph - N/A   Haze
2:05 PM 62.6 °F 53.6 °F 72% 29.90 in 5.0 mi NNE 5.8 mph - N/A   Haze
2:53 PM 62.1 °F 52.0 °F 70% 29.90 in 6.0 mi Variable 3.5 mph - N/A   Haze
3:53 PM 64.0 °F 50.0 °F 60% 29.88 in 8.0 mi Calm Calm - N/A   Mostly Cloudy
4:32 PM 64.4 °F 50.0 °F 59% 29.88 in 9.0 mi Calm Calm - N/A   Partly Cloudy
4:53 PM 66.9 °F 51.1 °F 57% 29.88 in 9.0 mi NW 6.9 mph - N/A   Clear
5:53 PM 66.9 °F 50.0 °F 54% 29.87 in 10.0 mi NW 5.8 mph - N/A   Clear
6:53 PM 66.9 °F 50.0 °F 54% 29.87 in 10.0 mi Variable 4.6 mph - N/A   Clear
7:53 PM 64.0 °F 50.0 °F 60% 29.87 in 10.0 mi North 3.5 mph - N/A   Clear
8:53 PM 59.0 °F 48.9 °F 69% 29.89 in 9.0 mi East 8.1 mph - N/A   Clear
9:53 PM 55.9 °F 48.0 °F 75% 29.91 in 8.0 mi ENE 9.2 mph - N/A   Clear
10:53 PM 54.0 °F 46.0 °F 75% 29.91 in 8.0 mi ENE 5.8 mph - N/A   Clear
11:53 PM 53.1 °F 46.0 °F 77% 29.91 in 8.0 mi ENE 3.5 mph - N/A   Clear